Location: Palomar Mountain Lodge
(33.3110°N, 116.8495°W)
Time: 01:05:17
(UTC-07:00)

GPS 2-05 Rocket1 - Pass Details

Date: 12 July 2018
Orbit: 347 x 398 km, 35.6° (Epoch: 18 October)

Event Time Altitude Azimuth Distance (km) Brightness Sun altitude
Rises 21:50:02 0° 256° (WSW) 2,166 6.8 -19.7°
Reaches altitude 10° 21:52:03 10° 256° (WSW) 1,333 5.7 -20.0°
Enters shadow 21:54:18 47° 259° (W) 489 3.2 -20.3°
